owner,sensor,date,latitude,longitude,vertical_datum,sea_water_practical_salinity,qcFlag 
SCCF RECON,ioos:station:SCCF:12:1,2009-03-01T00:00:00Z,26.4966,-82.1479,2.01,33.54,1111122 
SCCF RECON,ioos:station:SCCF:12:1,2009-03-01T01:00:00Z,26.4966,-82.1479,1.9,33.54,1111122 
SCCF RECON,ioos:station:SCCF:12:1,2009-03-01T02:00:00Z,26.4966,-82.1479,1.8,33.54,1111122 
SCCF RECON,ioos:station:SCCF:12:1,2009-03-01T03:00:00Z,26.4966,-82.1479,1.74,33.54,1111122 
SCCF RECON,ioos:station:SCCF:12:1,2009-03-01T04:00:00Z,26.4966,-82.1479,1.77,33.63,1111122 
SCCF RECON,ioos:station:SCCF:12:1,2009-03-01T05:00:00Z,26.4966,-82.1479,1.89,33.73,1111122 
SCCF RECON,ioos:station:SCCF:12:1,2009-03-01T06:00:00Z,26.4966,-82.1479,2.03,33.71,1111122 
SCCF RECON,ioos:station:SCCF:12:1,2009-03-01T07:00:00Z,26.4966,-82.1479,2.14,33.56,1111122 
SCCF RECON,ioos:station:SCCF:12:1,2009-03-01T08:00:00Z,26.4966,-82.1479,2.201,33.58,1111122 
SCCF RECON,ioos:station:SCCF:12:1,2009-03-01T09:00:00Z,26.4966,-82.1479,2.23,33.62,1111122 
SCCF RECON,ioos:station:SCCF:12:1,2009-03-01T10:00:00Z,26.4966,-82.1479,2.23,33.73,1111122 
SCCF RECON,ioos:station:SCCF:12:1,2009-03-01T11:00:00Z,26.4966,-82.1479,2.163,33.75,1111122 
SCCF RECON,ioos:station:SCCF:12:1,2009-03-01T12:00:00Z,26.4966,-82.1479,2.08,33.77,1111122 
SCCF RECON,ioos:station:SCCF:12:1,2009-03-01T13:00:00Z,26.4966,-82.1479,2.0,33.78,1111122 
SCCF RECON,ioos:station:SCCF:12:1,2009-03-01T14:00:00Z,26.4966,-82.1479,1.955,33.8,1111122 
SCCF RECON,ioos:station:SCCF:12:1,2009-03-01T15:00:00Z,26.4966,-82.1479,1.984,33.77,1111122 
SCCF RECON,ioos:station:SCCF:12:1,2009-03-01T16:00:00Z,26.4966,-82.1479,2.176,33.67,1111122 
SCCF RECON,ioos:station:SCCF:12:1,2009-03-01T17:00:00Z,26.4966,-82.1479,2.301,33.7,1111122 
SCCF RECON,ioos:station:SCCF:12:1,2009-03-01T18:00:00Z,26.4966,-82.1479,2.329,33.75,1111122 
SCCF RECON,ioos:station:SCCF:12:1,2009-03-01T19:00:00Z,26.4966,-82.1479,2.295,33.82,1111122 
SCCF RECON,ioos:station:SCCF:12:1,2009-03-01T20:00:00Z,26.4966,-82.1479,2.324,34.02,1111122 
SCCF RECON,ioos:station:SCCF:12:1,2009-03-01T21:00:00Z,26.4966,-82.1479,2.306,34.11,1111122 
SCCF RECON,ioos:station:SCCF:12:1,2009-03-01T22:00:00Z,26.4966,-82.1479,2.265,34.73,1111122 
SCCF RECON,ioos:station:SCCF:12:1,2009-03-01T23:00:00Z,26.4966,-82.1479,2.192,34.97,1111122 
SCCF RECON,ioos:station:SCCF:12:1,2009-03-02T00:00:00Z,26.4966,-82.1479,2.103,35.19,1111122 
SCCF RECON,ioos:station:SCCF:12:1,2009-03-02T01:00:00Z,26.4966,-82.1479,2.005,35.26,1111122 
SCCF RECON,ioos:station:SCCF:12:1,2009-03-02T02:00:00Z,26.4966,-82.1479,1.886,35.57,1111122 
SCCF RECON,ioos:station:SCCF:12:1,2009-03-02T03:00:00Z,26.4966,-82.1479,1.772,35.65,1111122 
SCCF RECON,ioos:station:SCCF:12:1,2009-03-02T04:00:00Z,26.4966,-82.1479,1.717,35.73,1111122 
SCCF RECON,ioos:station:SCCF:12:1,2009-03-02T05:00:00Z,26.4966,-82.1479,1.736,35.57,1111122 
SCCF RECON,ioos:station:SCCF:12:1,2009-03-02T06:00:00Z,26.4966,-82.1479,1.804,35.62,1111122 
SCCF RECON,ioos:station:SCCF:12:1,2009-03-02T07:00:00Z,26.4966,-82.1479,1.896,35.71,1111122 
SCCF RECON,ioos:station:SCCF:12:1,2009-03-02T08:00:00Z,26.4966,-82.1479,1.952,35.66,1111122 
SCCF RECON,ioos:station:SCCF:12:1,2009-03-02T09:00:00Z,26.4966,-82.1479,1.903,35.81,1111122 
SCCF RECON,ioos:station:SCCF:12:1,2009-03-02T10:00:00Z,26.4966,-82.1479,1.866,35.81,1111122 
SCCF RECON,ioos:station:SCCF:12:1,2009-03-02T11:00:00Z,26.4966,-82.1479,1.872,35.8,1111122 
SCCF RECON,ioos:station:SCCF:12:1,2009-03-02T12:00:00Z,26.4966,-82.1479,1.854,35.86,1111122 
SCCF RECON,ioos:station:SCCF:12:1,2009-03-02T13:00:00Z,26.4966,-82.1479,1.853,35.84,1111122 
SCCF RECON,ioos:station:SCCF:12:1,2009-03-02T14:00:00Z,26.4966,-82.1479,1.866,35.89,1111122 
SCCF RECON,ioos:station:SCCF:12:1,2009-03-02T15:00:00Z,26.4966,-82.1479,1.896,35.9,1111122 
SCCF RECON,ioos:station:SCCF:12:1,2009-03-02T16:00:00Z,26.4966,-82.1479,1.921,35.91,1111122 
SCCF RECON,ioos:station:SCCF:12:1,2009-03-02T17:00:00Z,26.4966,-82.1479,1.977,36.0,1111122 
SCCF RECON,ioos:station:SCCF:12:1,2009-03-02T18:00:00Z,26.4966,-82.1479,2.076,36.07,1111122 
SCCF RECON,ioos:station:SCCF:12:1,2009-03-02T19:00:00Z,26.4966,-82.1479,2.2,36.11,1111122 
SCCF RECON,ioos:station:SCCF:12:1,2009-03-02T20:00:00Z,26.4966,-82.1479,2.302,36.11,1111122 
SCCF RECON,ioos:station:SCCF:12:1,2009-03-02T21:00:00Z,26.4966,-82.1479,2.328,36.14,1111122 
SCCF RECON,ioos:station:SCCF:12:1,2009-03-02T22:00:00Z,26.4966,-82.1479,2.312,36.12,1111122 
SCCF RECON,ioos:station:SCCF:12:1,2009-03-02T23:00:00Z,26.4966,-82.1479,2.245,36.02,1111122 
SCCF RECON,ioos:station:SCCF:12:1,2009-03-03T00:00:00Z,26.4966,-82.1479,2.141,36.04,1111122 
SCCF RECON,ioos:station:SCCF:12:1,2009-03-03T01:00:00Z,26.4966,-82.1479,2.037,35.98,1111122 
SCCF RECON,ioos:station:SCCF:12:1,2009-03-03T02:00:00Z,26.4966,-82.1479,1.939,35.94,1111122 
SCCF RECON,ioos:station:SCCF:12:1,2009-03-03T03:00:00Z,26.4966,-82.1479,1.847,35.98,1111122 
SCCF RECON,ioos:station:SCCF:12:1,2009-03-03T04:00:00Z,26.4966,-82.1479,1.765,36.03,1111122 
SCCF RECON,ioos:station:SCCF:12:1,2009-03-03T05:00:00Z,26.4966,-82.1479,1.711,36.04,1111122 
SCCF RECON,ioos:station:SCCF:12:1,2009-03-03T06:00:00Z,26.4966,-82.1479,1.699,35.96,1111122 
SCCF RECON,ioos:station:SCCF:12:1,2009-03-03T07:00:00Z,26.4966,-82.1479,1.76,35.97,1111122 
SCCF RECON,ioos:station:SCCF:12:1,2009-03-03T08:00:00Z,26.4966,-82.1479,1.848,36.0,1111122 
SCCF RECON,ioos:station:SCCF:12:1,2009-03-03T09:00:00Z,26.4966,-82.1479,1.92,36.03,1111122 
SCCF RECON,ioos:station:SCCF:12:1,2009-03-03T10:00:00Z,26.4966,-82.1479,1.992,36.13,1111122 
SCCF RECON,ioos:station:SCCF:12:1,2009-03-03T11:00:00Z,26.4966,-82.1479,2.043,36.11,1111122 
SCCF RECON,ioos:station:SCCF:12:1,2009-03-03T12:00:00Z,26.4966,-82.1479,2.057,36.02,1111122 
SCCF RECON,ioos:station:SCCF:12:1,2009-03-03T13:00:00Z,26.4966,-82.1479,2.005,36.0,1111122 
SCCF RECON,ioos:station:SCCF:12:1,2009-03-03T14:00:00Z,26.4966,-82.1479,1.949,35.99,1111122 
SCCF RECON,ioos:station:SCCF:12:1,2009-03-03T15:00:00Z,26.4966,-82.1479,1.953,36.08,1111122 
SCCF RECON,ioos:station:SCCF:12:1,2009-03-03T16:00:00Z,26.4966,-82.1479,1.996,36.1,1111122 
SCCF RECON,ioos:station:SCCF:12:1,2009-03-03T17:00:00Z,26.4966,-82.1479,2.048,36.11,1111122 
SCCF RECON,ioos:station:SCCF:12:1,2009-03-03T18:00:00Z,26.4966,-82.1479,2.11,36.02,1111122 
SCCF RECON,ioos:station:SCCF:12:1,2009-03-03T19:00:00Z,26.4966,-82.1479,2.18,36.0,1111122 
SCCF RECON,ioos:station:SCCF:12:1,2009-03-03T20:00:00Z,26.4966,-82.1479,2.25,35.97,1111122 
SCCF RECON,ioos:station:SCCF:12:1,2009-03-03T21:00:00Z,26.4966,-82.1479,2.297,35.97,1111122 
SCCF RECON,ioos:station:SCCF:12:1,2009-03-03T22:00:00Z,26.4966,-82.1479,2.332,35.96,1111122 
SCCF RECON,ioos:station:SCCF:12:1,2009-03-03T23:00:00Z,26.4966,-82.1479,2.319,35.93,1111122 
SCCF RECON,ioos:station:SCCF:12:1,2009-03-04T00:00:00Z,26.4966,-82.1479,2.253,35.95,1111122 
SCCF RECON,ioos:station:SCCF:12:1,2009-03-04T01:00:00Z,26.4966,-82.1479,2.167,35.93,1111122 
SCCF RECON,ioos:station:SCCF:12:1,2009-03-04T02:00:00Z,26.4966,-82.1479,2.07,35.89,1111122 
SCCF RECON,ioos:station:SCCF:12:1,2009-03-04T03:00:00Z,26.4966,-82.1479,1.957,35.9,1111122 
SCCF RECON,ioos:station:SCCF:12:1,2009-03-04T04:00:00Z,26.4966,-82.1479,1.842,35.9,1111122 
SCCF RECON,ioos:station:SCCF:12:1,2009-03-04T05:00:00Z,26.4966,-82.1479,1.732,35.87,1111122 
SCCF RECON,ioos:station:SCCF:12:1,2009-03-04T06:00:00Z,26.4966,-82.1479,1.654,35.86,1111122 
SCCF RECON,ioos:station:SCCF:12:1,2009-03-04T07:00:00Z,26.4966,-82.1479,1.62,35.88,1111122 
SCCF RECON,ioos:station:SCCF:12:1,2009-03-04T08:00:00Z,26.4966,-82.1479,1.662,35.94,1111122 
SCCF RECON,ioos:station:SCCF:12:1,2009-03-04T09:00:00Z,26.4966,-82.1479,1.756,35.87,1111122 
SCCF RECON,ioos:station:SCCF:12:1,2009-03-04T10:00:00Z,26.4966,-82.1479,1.818,35.89,1111122 
SCCF RECON,ioos:station:SCCF:12:1,2009-03-04T11:00:00Z,26.4966,-82.1479,1.871,35.93,1111122 
SCCF RECON,ioos:station:SCCF:12:1,2009-03-04T12:00:00Z,26.4966,-82.1479,1.93,35.98,1111122 
SCCF RECON,ioos:station:SCCF:12:1,2009-03-04T13:00:00Z,26.4966,-82.1479,1.995,36.09,1111122 
SCCF RECON,ioos:station:SCCF:12:1,2009-03-04T14:00:00Z,26.4966,-82.1479,2.053,36.07,1111122 
SCCF RECON,ioos:station:SCCF:12:1,2009-03-04T15:00:00Z,26.4966,-82.1479,2.08,36.15,1111122 
SCCF RECON,ioos:station:SCCF:12:1,2009-03-04T16:00:00Z,26.4966,-82.1479,2.093,36.03,1111122 
SCCF RECON,ioos:station:SCCF:12:1,2009-03-04T17:00:00Z,26.4966,-82.1479,2.111,36.07,1111122 
SCCF RECON,ioos:station:SCCF:12:1,2009-03-04T18:00:00Z,26.4966,-82.1479,2.159,36.07,1111122 
SCCF RECON,ioos:station:SCCF:12:1,2009-03-04T19:00:00Z,26.4966,-82.1479,2.212,36.12,1111122 
SCCF RECON,ioos:station:SCCF:12:1,2009-03-04T20:00:00Z,26.4966,-82.1479,2.279,36.12,1111122 
SCCF RECON,ioos:station:SCCF:12:1,2009-03-04T21:00:00Z,26.4966,-82.1479,2.335,36.09,1111122 
SCCF RECON,ioos:station:SCCF:12:1,2009-03-04T22:00:00Z,26.4966,-82.1479,2.383,36.06,1111122 
SCCF RECON,ioos:station:SCCF:12:1,2009-03-04T23:00:00Z,26.4966,-82.1479,2.415,36.07,1111122 
SCCF RECON,ioos:station:SCCF:12:1,2009-03-05T00:00:00Z,26.4966,-82.1479,2.381,36.09,1111122 
SCCF RECON,ioos:station:SCCF:12:1,2009-03-05T01:00:00Z,26.4966,-82.1479,2.3,36.08,1111122 
SCCF RECON,ioos:station:SCCF:12:1,2009-03-05T02:00:00Z,26.4966,-82.1479,2.19,36.07,1111122 
SCCF RECON,ioos:station:SCCF:12:1,2009-03-05T03:00:00Z,26.4966,-82.1479,2.094,36.06,1111122 
SCCF RECON,ioos:station:SCCF:12:1,2009-03-05T04:00:00Z,26.4966,-82.1479,2.009,36.06,1111122 
SCCF RECON,ioos:station:SCCF:12:1,2009-03-05T05:00:00Z,26.4966,-82.1479,1.91,36.05,1111122 
SCCF RECON,ioos:station:SCCF:12:1,2009-03-05T06:00:00Z,26.4966,-82.1479,1.818,36.05,1111122 
SCCF RECON,ioos:station:SCCF:12:1,2009-03-05T07:00:00Z,26.4966,-82.1479,1.723,36.06,1111122 
SCCF RECON,ioos:station:SCCF:12:1,2009-03-05T08:00:00Z,26.4966,-82.1479,1.668,36.06,1111122 
SCCF RECON,ioos:station:SCCF:12:1,2009-03-05T09:00:00Z,26.4966,-82.1479,1.689,36.01,1111122 
SCCF RECON,ioos:station:SCCF:12:1,2009-03-05T10:00:00Z,26.4966,-82.1479,1.803,36.02,1111122 
SCCF RECON,ioos:station:SCCF:12:1,2009-03-05T11:00:00Z,26.4966,-82.1479,1.92,36.07,1111122 
SCCF RECON,ioos:station:SCCF:12:1,2009-03-05T12:00:00Z,26.4966,-82.1479,2.02,36.08,1111122 
SCCF RECON,ioos:station:SCCF:12:1,2009-03-05T13:00:00Z,26.4966,-82.1479,2.112,36.09,1111122 
SCCF RECON,ioos:station:SCCF:12:1,2009-03-05T14:00:00Z,26.4966,-82.1479,2.186,36.08,1111122 
SCCF RECON,ioos:station:SCCF:12:1,2009-03-05T15:00:00Z,26.4966,-82.1479,2.218,36.06,1111122 
SCCF RECON,ioos:station:SCCF:12:1,2009-03-05T16:00:00Z,26.4966,-82.1479,2.204,36.04,1111122 
SCCF RECON,ioos:station:SCCF:12:1,2009-03-05T17:00:00Z,26.4966,-82.1479,2.167,36.05,1111122 
SCCF RECON,ioos:station:SCCF:12:1,2009-03-05T18:00:00Z,26.4966,-82.1479,2.155,36.04,1111122 
SCCF RECON,ioos:station:SCCF:12:1,2009-03-05T19:00:00Z,26.4966,-82.1479,2.199,36.07,1111122 
SCCF RECON,ioos:station:SCCF:12:1,2009-03-05T20:00:00Z,26.4966,-82.1479,2.259,36.06,1111122 
SCCF RECON,ioos:station:SCCF:12:1,2009-03-05T21:00:00Z,26.4966,-82.1479,2.338,36.15,1111122 
SCCF RECON,ioos:station:SCCF:12:1,2009-03-05T22:00:00Z,26.4966,-82.1479,2.419,36.11,1111122 
SCCF RECON,ioos:station:SCCF:12:1,2009-03-05T23:00:00Z,26.4966,-82.1479,2.483,36.09,1111122 
SCCF RECON,ioos:station:SCCF:12:1,2009-03-06T00:00:00Z,26.4966,-82.1479,2.501,36.12,1111122 
SCCF RECON,ioos:station:SCCF:12:1,2009-03-06T01:00:00Z,26.4966,-82.1479,2.489,36.18,1111122 
SCCF RECON,ioos:station:SCCF:12:1,2009-03-06T02:00:00Z,26.4966,-82.1479,2.44,36.1,1111122 
SCCF RECON,ioos:station:SCCF:12:1,2009-03-06T03:00:00Z,26.4966,-82.1479,2.37,36.07,1111122 
SCCF RECON,ioos:station:SCCF:12:1,2009-03-06T04:00:00Z,26.4966,-82.1479,2.258,35.86,1111122 
SCCF RECON,ioos:station:SCCF:12:1,2009-03-06T05:00:00Z,26.4966,-82.1479,2.13,35.79,1111122 
SCCF RECON,ioos:station:SCCF:12:1,2009-03-06T06:00:00Z,26.4966,-82.1479,2.002,35.8,1111122 
SCCF RECON,ioos:station:SCCF:12:1,2009-03-06T07:00:00Z,26.4966,-82.1479,1.878,35.91,1111122 
SCCF RECON,ioos:station:SCCF:12:1,2009-03-06T08:00:00Z,26.4966,-82.1479,1.76,35.92,1111122 
SCCF RECON,ioos:station:SCCF:12:1,2009-03-06T09:00:00Z,26.4966,-82.1479,1.68,35.94,1111122 
SCCF RECON,ioos:station:SCCF:12:1,2009-03-06T10:00:00Z,26.4966,-82.1479,1.692,35.98,1111122 
SCCF RECON,ioos:station:SCCF:12:1,2009-03-06T11:00:00Z,26.4966,-82.1479,1.821,35.99,1111122 
SCCF RECON,ioos:station:SCCF:12:1,2009-03-06T12:00:00Z,26.4966,-82.1479,1.95,36.01,1111122 
SCCF RECON,ioos:station:SCCF:12:1,2009-03-06T13:00:00Z,26.4966,-82.1479,2.058,35.98,1111122 
SCCF RECON,ioos:station:SCCF:12:1,2009-03-06T14:00:00Z,26.4966,-82.1479,2.15,35.92,1111122 
SCCF RECON,ioos:station:SCCF:12:1,2009-03-06T15:00:00Z,26.4966,-82.1479,2.228,35.75,1111122 
SCCF RECON,ioos:station:SCCF:12:1,2009-03-06T16:00:00Z,26.4966,-82.1479,2.262,35.58,1111122 
SCCF RECON,ioos:station:SCCF:12:1,2009-03-06T17:00:00Z,26.4966,-82.1479,2.253,35.5,1111122 
SCCF RECON,ioos:station:SCCF:12:1,2009-03-06T18:00:00Z,26.4966,-82.1479,2.204,35.41,1111122 
SCCF RECON,ioos:station:SCCF:12:1,2009-03-06T19:00:00Z,26.4966,-82.1479,2.17,35.58,1111122 
SCCF RECON,ioos:station:SCCF:12:1,2009-03-06T20:00:00Z,26.4966,-82.1479,2.19,35.72,1111122 
SCCF RECON,ioos:station:SCCF:12:1,2009-03-06T21:00:00Z,26.4966,-82.1479,2.251,35.77,1111122 
SCCF RECON,ioos:station:SCCF:12:1,2009-03-06T22:00:00Z,26.4966,-82.1479,2.312,35.76,1111122 
SCCF RECON,ioos:station:SCCF:12:1,2009-03-06T23:00:00Z,26.4966,-82.1479,2.37,35.83,1111122 
SCCF RECON,ioos:station:SCCF:12:1,2009-03-07T00:00:00Z,26.4966,-82.1479,2.42,35.82,1111122 
SCCF RECON,ioos:station:SCCF:12:1,2009-03-07T01:00:00Z,26.4966,-82.1479,2.46,35.83,1111122 
SCCF RECON,ioos:station:SCCF:12:1,2009-03-07T02:00:00Z,26.4966,-82.1479,2.473,35.84,1111122 
SCCF RECON,ioos:station:SCCF:12:1,2009-03-07T03:00:00Z,26.4966,-82.1479,2.45,35.8,1111122 
SCCF RECON,ioos:station:SCCF:12:1,2009-03-07T04:00:00Z,26.4966,-82.1479,2.387,35.74,1111122 
SCCF RECON,ioos:station:SCCF:12:1,2009-03-07T05:00:00Z,26.4966,-82.1479,2.273,35.71,1111122 
SCCF RECON,ioos:station:SCCF:12:1,2009-03-07T06:00:00Z,26.4966,-82.1479,2.139,35.74,1111122 
SCCF RECON,ioos:station:SCCF:12:1,2009-03-07T07:00:00Z,26.4966,-82.1479,1.99,35.72,1111122 
SCCF RECON,ioos:station:SCCF:12:1,2009-03-07T08:00:00Z,26.4966,-82.1479,1.86,35.67,1111122 
SCCF RECON,ioos:station:SCCF:12:1,2009-03-07T09:00:00Z,26.4966,-82.1479,1.744,35.63,1111122 
SCCF RECON,ioos:station:SCCF:12:1,2009-03-07T10:00:00Z,26.4966,-82.1479,1.662,35.6,1111122 
SCCF RECON,ioos:station:SCCF:12:1,2009-03-07T11:00:00Z,26.4966,-82.1479,1.669,35.64,1111122 
SCCF RECON,ioos:station:SCCF:12:1,2009-03-07T12:00:00Z,26.4966,-82.1479,1.81,35.65,1111122 
SCCF RECON,ioos:station:SCCF:12:1,2009-03-07T13:00:00Z,26.4966,-82.1479,1.95,35.63,1111122 
SCCF RECON,ioos:station:SCCF:12:1,2009-03-07T14:00:00Z,26.4966,-82.1479,2.08,35.62,1111122 
SCCF RECON,ioos:station:SCCF:12:1,2009-03-07T15:00:00Z,26.4966,-82.1479,2.18,35.63,1111122 
SCCF RECON,ioos:station:SCCF:12:1,2009-03-07T16:00:00Z,26.4966,-82.1479,2.241,35.46,1111122 
SCCF RECON,ioos:station:SCCF:12:1,2009-03-07T17:00:00Z,26.4966,-82.1479,2.27,35.41,1111122 
SCCF RECON,ioos:station:SCCF:12:1,2009-03-07T18:00:00Z,26.4966,-82.1479,2.24,35.25,1111122 
SCCF RECON,ioos:station:SCCF:12:1,2009-03-07T19:00:00Z,26.4966,-82.1479,2.172,35.26,1111122 
SCCF RECON,ioos:station:SCCF:12:1,2009-03-07T20:00:00Z,26.4966,-82.1479,2.121,35.17,1111122 
SCCF RECON,ioos:station:SCCF:12:1,2009-03-07T21:00:00Z,26.4966,-82.1479,2.119,35.12,1111122 
SCCF RECON,ioos:station:SCCF:12:1,2009-03-07T22:00:00Z,26.4966,-82.1479,2.172,35.03,1111122 
SCCF RECON,ioos:station:SCCF:12:1,2009-03-07T23:00:00Z,26.4966,-82.1479,2.25,35.22,1111122 
SCCF RECON,ioos:station:SCCF:12:1,2009-03-08T00:00:00Z,26.4966,-82.1479,2.34,35.41,1111122 
SCCF RECON,ioos:station:SCCF:12:1,2009-03-08T01:00:00Z,26.4966,-82.1479,2.42,35.48,1111122 
SCCF RECON,ioos:station:SCCF:12:1,2009-03-08T02:00:00Z,26.4966,-82.1479,2.49,35.57,1111122 
SCCF RECON,ioos:station:SCCF:12:1,2009-03-08T03:00:00Z,26.4966,-82.1479,2.55,35.62,1111122 
SCCF RECON,ioos:station:SCCF:12:1,2009-03-08T04:00:00Z,26.4966,-82.1479,2.54,35.63,1111122 
SCCF RECON,ioos:station:SCCF:12:1,2009-03-08T05:00:00Z,26.4966,-82.1479,2.45,35.48,1111122 
SCCF RECON,ioos:station:SCCF:12:1,2009-03-08T06:00:00Z,26.4966,-82.1479,2.316,35.48,1111122 
SCCF RECON,ioos:station:SCCF:12:1,2009-03-08T07:00:00Z,26.4966,-82.1479,2.158,35.39,1111122 
SCCF RECON,ioos:station:SCCF:12:1,2009-03-08T08:00:00Z,26.4966,-82.1479,2.01,35.47,1111122 
SCCF RECON,ioos:station:SCCF:12:1,2009-03-08T09:00:00Z,26.4966,-82.1479,1.88,35.5,1111122 
SCCF RECON,ioos:station:SCCF:12:1,2009-03-08T10:00:00Z,26.4966,-82.1479,1.769,35.52,1111122 
SCCF RECON,ioos:station:SCCF:12:1,2009-03-08T11:00:00Z,26.4966,-82.1479,1.7,35.43,1111122 
SCCF RECON,ioos:station:SCCF:12:1,2009-03-08T12:00:00Z,26.4966,-82.1479,1.713,35.38,1111122 
SCCF RECON,ioos:station:SCCF:12:1,2009-03-08T13:00:00Z,26.4966,-82.1479,1.879,35.41,1111122 
SCCF RECON,ioos:station:SCCF:12:1,2009-03-08T14:00:00Z,26.4966,-82.1479,2.02,35.41,1111122 
SCCF RECON,ioos:station:SCCF:12:1,2009-03-08T15:00:00Z,26.4966,-82.1479,2.14,35.43,1111122 
SCCF RECON,ioos:station:SCCF:12:1,2009-03-08T16:00:00Z,26.4966,-82.1479,2.234,35.35,1111122 
SCCF RECON,ioos:station:SCCF:12:1,2009-03-08T17:00:00Z,26.4966,-82.1479,2.289,35.15,1111122 
SCCF RECON,ioos:station:SCCF:12:1,2009-03-08T18:00:00Z,26.4966,-82.1479,2.283,35.05,1111122 
SCCF RECON,ioos:station:SCCF:12:1,2009-03-08T19:00:00Z,26.4966,-82.1479,2.218,34.9,1111122 
SCCF RECON,ioos:station:SCCF:12:1,2009-03-08T20:00:00Z,26.4966,-82.1479,2.128,34.83,1111122 
SCCF RECON,ioos:station:SCCF:12:1,2009-03-08T21:00:00Z,26.4966,-82.1479,2.05,34.68,1111122 
SCCF RECON,ioos:station:SCCF:12:1,2009-03-08T22:00:00Z,26.4966,-82.1479,2.01,34.76,1111122 
SCCF RECON,ioos:station:SCCF:12:1,2009-03-08T23:00:00Z,26.4966,-82.1479,2.049,34.76,1111122 
SCCF RECON,ioos:station:SCCF:12:1,2009-03-09T00:00:00Z,26.4966,-82.1479,2.15,35.01,1111122 
SCCF RECON,ioos:station:SCCF:12:1,2009-03-09T01:00:00Z,26.4966,-82.1479,2.27,35.12,1111122 
SCCF RECON,ioos:station:SCCF:12:1,2009-03-09T02:00:00Z,26.4966,-82.1479,2.39,35.14,1111122 
SCCF RECON,ioos:station:SCCF:12:1,2009-03-09T03:00:00Z,26.4966,-82.1479,2.48,35.2,1111122 
SCCF RECON,ioos:station:SCCF:12:1,2009-03-09T04:00:00Z,26.4966,-82.1479,2.54,35.2,1111122 
SCCF RECON,ioos:station:SCCF:12:1,2009-03-09T05:00:00Z,26.4966,-82.1479,2.53,35.14,1111122 
SCCF RECON,ioos:station:SCCF:12:1,2009-03-09T06:00:00Z,26.4966,-82.1479,2.44,35.16,1111122 
SCCF RECON,ioos:station:SCCF:12:1,2009-03-09T07:00:00Z,26.4966,-82.1479,2.3,35.1,1111122 
SCCF RECON,ioos:station:SCCF:12:1,2009-03-09T08:00:00Z,26.4966,-82.1479,2.14,35.07,1111122 
SCCF RECON,ioos:station:SCCF:12:1,2009-03-09T09:00:00Z,26.4966,-82.1479,2.0,35.14,1111122 
SCCF RECON,ioos:station:SCCF:12:1,2009-03-09T10:00:00Z,26.4966,-82.1479,1.87,35.15,1111122 
SCCF RECON,ioos:station:SCCF:12:1,2009-03-09T11:00:00Z,26.4966,-82.1479,1.77,34.86,1111122 
SCCF RECON,ioos:station:SCCF:12:1,2009-03-09T12:00:00Z,26.4966,-82.1479,1.719,35.17,1111122 
SCCF RECON,ioos:station:SCCF:12:1,2009-03-09T13:00:00Z,26.4966,-82.1479,1.794,35.11,1111122 
SCCF RECON,ioos:station:SCCF:12:1,2009-03-09T14:00:00Z,26.4966,-82.1479,1.971,35.09,1111122 
SCCF RECON,ioos:station:SCCF:12:1,2009-03-09T15:00:00Z,26.4966,-82.1479,2.121,34.98,1111122 
SCCF RECON,ioos:station:SCCF:12:1,2009-03-09T16:00:00Z,26.4966,-82.1479,2.243,35.01,1111122 
SCCF RECON,ioos:station:SCCF:12:1,2009-03-09T17:00:00Z,26.4966,-82.1479,2.325,35.01,1111122 
SCCF RECON,ioos:station:SCCF:12:1,2009-03-09T18:00:00Z,26.4966,-82.1479,2.351,34.97,1111122 
SCCF RECON,ioos:station:SCCF:12:1,2009-03-09T19:00:00Z,26.4966,-82.1479,2.29,34.82,1111122 
SCCF RECON,ioos:station:SCCF:12:1,2009-03-09T20:00:00Z,26.4966,-82.1479,2.18,34.61,1111122 
SCCF RECON,ioos:station:SCCF:12:1,2009-03-09T21:00:00Z,26.4966,-82.1479,2.064,34.51,1111122 
SCCF RECON,ioos:station:SCCF:12:1,2009-03-09T22:00:00Z,26.4966,-82.1479,1.973,34.54,1111122 
SCCF RECON,ioos:station:SCCF:12:1,2009-03-09T23:00:00Z,26.4966,-82.1479,1.937,34.54,1111122 
SCCF RECON,ioos:station:SCCF:12:1,2009-03-10T00:00:00Z,26.4966,-82.1479,1.96,34.64,1111122 
SCCF RECON,ioos:station:SCCF:12:1,2009-03-10T01:00:00Z,26.4966,-82.1479,2.06,34.91,1111122 
SCCF RECON,ioos:station:SCCF:12:1,2009-03-10T02:00:00Z,26.4966,-82.1479,2.22,34.88,1111122 
SCCF RECON,ioos:station:SCCF:12:1,2009-03-10T03:00:00Z,26.4966,-82.1479,2.369,34.91,1111122 
SCCF RECON,ioos:station:SCCF:12:1,2009-03-10T04:00:00Z,26.4966,-82.1479,2.47,34.89,1111122 
SCCF RECON,ioos:station:SCCF:12:1,2009-03-10T05:00:00Z,26.4966,-82.1479,2.529,34.86,1111122 
SCCF RECON,ioos:station:SCCF:12:1,2009-03-10T06:00:00Z,26.4966,-82.1479,2.498,34.82,1111122 
SCCF RECON,ioos:station:SCCF:12:1,2009-03-10T07:00:00Z,26.4966,-82.1479,2.38,34.82,1111122 
SCCF RECON,ioos:station:SCCF:12:1,2009-03-10T08:00:00Z,26.4966,-82.1479,2.222,34.83,1111122 
SCCF RECON,ioos:station:SCCF:12:1,2009-03-10T09:00:00Z,26.4966,-82.1479,2.08,34.89,1111122 
SCCF RECON,ioos:station:SCCF:12:1,2009-03-10T10:00:00Z,26.4966,-82.1479,1.952,34.91,1111122 
SCCF RECON,ioos:station:SCCF:12:1,2009-03-10T11:00:00Z,26.4966,-82.1479,1.84,34.73,1111122 
SCCF RECON,ioos:station:SCCF:12:1,2009-03-10T12:00:00Z,26.4966,-82.1479,1.759,34.91,1111122 
SCCF RECON,ioos:station:SCCF:12:1,2009-03-10T13:00:00Z,26.4966,-82.1479,1.74,34.89,1111122 
SCCF RECON,ioos:station:SCCF:12:1,2009-03-10T14:00:00Z,26.4966,-82.1479,1.885,34.84,1111122 
SCCF RECON,ioos:station:SCCF:12:1,2009-03-10T15:00:00Z,26.4966,-82.1479,2.066,34.87,1111122 
SCCF RECON,ioos:station:SCCF:12:1,2009-03-10T16:00:00Z,26.4966,-82.1479,2.204,34.77,1111122 
SCCF RECON,ioos:station:SCCF:12:1,2009-03-10T17:00:00Z,26.4966,-82.1479,2.302,34.82,1111122 
SCCF RECON,ioos:station:SCCF:12:1,2009-03-10T18:00:00Z,26.4966,-82.1479,2.344,34.82,1111122 
SCCF RECON,ioos:station:SCCF:12:1,2009-03-10T19:00:00Z,26.4966,-82.1479,2.302,34.77,1111122 
SCCF RECON,ioos:station:SCCF:12:1,2009-03-10T20:00:00Z,26.4966,-82.1479,2.2,34.56,1111122 
SCCF RECON,ioos:station:SCCF:12:1,2009-03-10T21:00:00Z,26.4966,-82.1479,2.079,34.53,1111122 
SCCF RECON,ioos:station:SCCF:12:1,2009-03-10T22:00:00Z,26.4966,-82.1479,1.97,34.52,1111122 
SCCF RECON,ioos:station:SCCF:12:1,2009-03-10T23:00:00Z,26.4966,-82.1479,1.881,34.52,1111122 
SCCF RECON,ioos:station:SCCF:12:1,2009-03-11T00:00:00Z,26.4966,-82.1479,1.84,34.55,1111122 
SCCF RECON,ioos:station:SCCF:12:1,2009-03-11T01:00:00Z,26.4966,-82.1479,1.871,34.84,1111122 
SCCF RECON,ioos:station:SCCF:12:1,2009-03-11T02:00:00Z,26.4966,-82.1479,2.013,34.8,1111122 
SCCF RECON,ioos:station:SCCF:12:1,2009-03-11T03:00:00Z,26.4966,-82.1479,2.197,34.77,1111122 
SCCF RECON,ioos:station:SCCF:12:1,2009-03-11T04:00:00Z,26.4966,-82.1479,2.34,34.74,1111122 
SCCF RECON,ioos:station:SCCF:12:1,2009-03-11T05:00:00Z,26.4966,-82.1479,2.442,34.62,1111122 
SCCF RECON,ioos:station:SCCF:12:1,2009-03-11T06:00:00Z,26.4966,-82.1479,2.508,34.73,1111122 
SCCF RECON,ioos:station:SCCF:12:1,2009-03-11T07:00:00Z,26.4966,-82.1479,2.47,34.83,1111122 
SCCF RECON,ioos:station:SCCF:12:1,2009-03-11T08:00:00Z,26.4966,-82.1479,2.353,34.76,1111122 
SCCF RECON,ioos:station:SCCF:12:1,2009-03-11T09:00:00Z,26.4966,-82.1479,2.201,34.68,1111122 
SCCF RECON,ioos:station:SCCF:12:1,2009-03-11T10:00:00Z,26.4966,-82.1479,2.07,34.76,1111122 
SCCF RECON,ioos:station:SCCF:12:1,2009-03-11T11:00:00Z,26.4966,-82.1479,1.96,34.76,1111122 
SCCF RECON,ioos:station:SCCF:12:1,2009-03-11T12:00:00Z,26.4966,-82.1479,1.88,34.6,1111122 
SCCF RECON,ioos:station:SCCF:12:1,2009-03-11T13:00:00Z,26.4966,-82.1479,1.842,34.62,1111122 
SCCF RECON,ioos:station:SCCF:12:1,2009-03-11T14:00:00Z,26.4966,-82.1479,1.923,34.7,1111122 
SCCF RECON,ioos:station:SCCF:12:1,2009-03-11T15:00:00Z,26.4966,-82.1479,2.107,34.67,1111122 
SCCF RECON,ioos:station:SCCF:12:1,2009-03-11T16:00:00Z,26.4966,-82.1479,2.259,34.63,1111122 
SCCF RECON,ioos:station:SCCF:12:1,2009-03-11T17:00:00Z,26.4966,-82.1479,2.359,34.61,1111122 